Find Geoskan-4

NORAD ID: 64892 Int'l Des: 2025-155 Owner: GEOSK Country: RU operational
LEOCIRCULARRETROGRADESSO

リアルタイム位置

3D地球を読み込み中...

Geoskan-4について

説明を読み込み中...

次回通過

Passes for default location (London). Set your location on the main map for personalized predictions.

高度履歴

Loading altitude history...

軌道要素

1 64892U 25155S 26105.90184905 .00009104 00000-0 29990-3 0 9993
2 64892 97.4507 74.9048 0008148 57.9170 302.2862 15.31674525 71285
Epoch: Apr 15, 2026 • Age: 6 hours

現在のステータス

高度 487.9 km
速度 7.62 km/s
衛星直下点 -42.00°S, 178.4°W
打ち上げ日 Jul 25, 2025
運用期間 0.7 years
タイプ other

技術仕様

分類 Payload
質量 3.00 kg
乾燥質量 3.00 kg
総質量 3.00 kg
長さ 0.30 m
直径 0.10 m
スパン 0.30 m
形状 Box
製造者 SPUT/GEOSK
バスタイプ Cubesat 3U
フェーズステータス In Orbit
所有者/国 GEOSK/RU

Most Searched